,,Stat6,,Stat2,,Stat8,,Stat9,,Stat10,,Wind1,,Wind1,
time,status,PA1M_AVG,status,PR1M_SUM,status,RH1M_AVG,status,SR1M_AVG,status,TA1M_AVG,status,W1dAve1m,status,W1sAve1m,
2009-06-19, 00:00:01,VALID,917.566,VALID,0,VALID,100,VALID,-0.101885,VALID,19.0032,VALID,161,VALID,0.140625,
2009-06-19, 00:01:01,VALID,917.576,VALID,0,VALID,100,VALID,-0.101885,VALID,19.0359,VALID,156,VALID,0.293241,
2009-06-19, 00:02:01,VALID,917.571,VALID,0,VALID,100,VALID,-0.101885,VALID,19.0616,VALID,161,VALID,0.714583,
2009-06-19, 00:03:01,VALID,917.571,VALID,0,VALID,100,VALID,-0.101885,VALID,19.098,VALID,153,VALID,0.341016,
2009-06-19, 00:04:01,VALID,917.573,VALID,0,VALID,100,VALID,-0.118866,VALID,19.1073,VALID,159,VALID,0.0412946,
2009-06-19, 00:05:01,VALID,917.584,VALID,0,VALID,100,VALID,-0.101885,VALID,19.127,VALID,149,VALID,0.22247,
2009-06-19, 00:06:01,VALID,917.576,VALID,0,VALID,99.9662,VALID,-0.118866,VALID,19.133,VALID,143,VALID,0.20149,
2009-06-19, 00:07:00,VALID,917.584,VALID,0,VALID,99.9565,VALID,-0.118866,VALID,19.1592,VALID,156,VALID,0.176448,
2009-06-19, 00:08:01,VALID,917.585,VALID,0,VALID,99.7726,VALID,-0.101885,VALID,19.2079,VALID,146,VALID,0.567708,
2009-06-19, 00:09:01,VALID,917.582,VALID,0,VALID,99.5972,VALID,-0.118866,VALID,19.2695,VALID,139,VALID,0.516211,
2009-06-19, 00:10:01,VALID,917.569,VALID,0,VALID,99.3454,VALID,-0.118866,VALID,19.289,VALID,156,VALID,0.448539,
2009-06-19, 00:11:01,VALID,917.563,VALID,0,VALID,99.2208,VALID,-0.101885,VALID,19.3054,VALID,150,VALID,0.271257,
2009-06-19, 00:12:01,VALID,917.54,VALID,0,VALID,99.2742,VALID,-0.101885,VALID,19.3217,VALID,156,VALID,0.314063,
2009-06-19, 00:13:01,VALID,917.534,VALID,0,VALID,99.236,VALID,-0.0849042,VALID,19.3406,VALID,151,VALID,0.231213,
2009-06-19, 00:14:01,VALID,917.524,VALID,0,VALID,99.0783,VALID,-0.101885,VALID,19.3439,VALID,148,VALID,0.0575945,
2009-06-19, 00:15:01,VALID,917.518,VALID,0,VALID,98.9067,,,VALID,19.3214,VALID,150,VALID,0.131836,
2009-06-19, 00:16:00,VALID,917.521,VALID,0,VALID,98.9156,VALID,-0.0849042,VALID,19.2982,VALID,157,VALID,0.275073,
2009-06-19, 00:17:00,VALID,917.523,VALID,0,VALID,98.899,VALID,-0.135847,VALID,19.2957,VALID,148,VALID,0.134629,
2009-06-19, 00:18:00,VALID,917.51,VALID,0,VALID,98.8189,VALID,-0.101885,VALID,19.292,VALID,153,VALID,0.000726744,
2009-06-19, 00:19:00,VALID,917.504,VALID,0,VALID,98.6981,VALID,-0.101885,VALID,19.2663,VALID,144,VALID,0,
2009-06-19, 00:20:00,VALID,917.485,VALID,0,VALID,98.6244,VALID,-0.118866,VALID,19.2141,VALID,149,VALID,0.230569,
2009-06-19, 00:21:00,VALID,917.462,VALID,0,VALID,98.763,VALID,-0.118866,VALID,19.2081,VALID,145,VALID,0.0645461,
2009-06-19, 00:22:00,VALID,917.442,VALID,0,VALID,98.6447,VALID,-0.169808,VALID,19.1659,VALID,134,VALID,0,
2009-06-19, 00:23:00,VALID,917.435,VALID,0,VALID,98.6447,VALID,-0.101885,VALID,19.1238,VALID,118,VALID,0,
2009-06-19, 00:24:00,VALID,917.423,VALID,0,VALID,98.7503,VALID,-0.118866,VALID,19.0748,VALID,116,VALID,0,
2009-06-19, 00:25:00,VALID,917.426,VALID,0,VALID,98.8202,VALID,-0.135847,VALID,19.0556,VALID,105,VALID,0.000355114,
2009-06-19, 00:26:00,VALID,917.428,VALID,0,VALID,98.8978,VALID,-0.0849042,VALID,19.0424,VALID,93,VALID,0.000976563,
2009-06-19, 00:27:00,VALID,917.43,VALID,0,VALID,98.8622,VALID,-0.0679233,VALID,19.0357,VALID,88,VALID,0,
2009-06-19, 00:28:00,VALID,917.428,VALID,0,VALID,98.8469,VALID,-0.118866,VALID,19.0162,VALID,88,VALID,0.000952744,
2009-06-19, 00:29:00,VALID,917.436,VALID,0,VALID,98.8316,VALID,-0.101885,VALID,18.9967,VALID,96,VALID,0,
2009-06-19, 00:30:00,VALID,917.427,VALID,0,VALID,98.8596,VALID,-0.101885,VALID,18.9905,VALID,101,VALID,0,
2009-06-19, 00:31:00,VALID,917.437,VALID,0,VALID,98.7719,VALID,-0.101885,VALID,19.0035,VALID,120,VALID,0,
2009-06-19, 00:32:00,VALID,917.413,VALID,0,VALID,98.5964,VALID,-0.101885,VALID,19.01,VALID,131,VALID,0,
2009-06-19, 00:33:00,VALID,917.4,VALID,0,VALID,98.4362,VALID,-0.101885,VALID,18.9935,VALID,129,VALID,0,
2009-06-19, 00:34:00,VALID,917.385,VALID,0,VALID,98.3853,VALID,-0.101885,VALID,18.974,VALID,129,VALID,0,
2009-06-19, 00:35:00,VALID,917.361,VALID,0,VALID,98.3751,VALID,-0.101885,VALID,18.9548,VALID,138,VALID,0,
2009-06-19, 00:36:00,VALID,917.345,VALID,0,VALID,98.3942,VALID,-0.101885,VALID,18.9578,VALID,152,VALID,0,
2009-06-19, 00:37:00,VALID,917.35,VALID,0,VALID,98.3052,VALID,-0.0849042,VALID,18.9513,VALID,145,VALID,0,
2009-06-19, 00:38:00,VALID,917.347,VALID,0,VALID,98.2365,VALID,-0.101885,VALID,18.9381,VALID,140,VALID,0,
2009-06-19, 00:39:00,VALID,917.352,VALID,0,VALID,98.1106,VALID,-0.118866,VALID,18.9191,VALID,110,VALID,0,
2009-06-19, 00:40:00,VALID,917.34,VALID,0,VALID,98.0661,VALID,-0.0849042,VALID,18.8767,VALID,102,VALID,0,
2009-06-19, 00:41:00,VALID,917.342,VALID,0,VALID,98.0356,VALID,-0.0679233,VALID,18.8118,VALID,101,VALID,0,
2009-06-19, 00:42:00,VALID,917.307,VALID,0,VALID,98.2149,VALID,-0.118866,VALID,18.7602,VALID,99,VALID,0,
2009-06-19, 00:43:00,VALID,917.3,VALID,0,VALID,98.276,VALID,-0.101885,VALID,18.6981,VALID,108,VALID,0,
2009-06-19, 00:44:00,VALID,917.29,VALID,0,VALID,98.4858,VALID,-0.118866,VALID,18.6561,VALID,117,VALID,0.0767912,
2009-06-19, 00:45:00,VALID,917.283,VALID,0,VALID,98.6803,VALID,-0.101885,VALID,18.6594,VALID,118,VALID,0,
2009-06-19, 00:46:00,VALID,917.274,VALID,0,VALID,98.7668,VALID,-0.118866,VALID,18.6596,VALID,121,VALID,0.169513,
2009-06-19, 00:47:00,VALID,917.275,VALID,0,VALID,98.749,VALID,-0.101885,VALID,18.6566,VALID,121,VALID,0.0886628,
2009-06-19, 00:48:00,VALID,917.258,VALID,0,VALID,98.7884,VALID,-0.0849042,VALID,18.6594,VALID,110,VALID,0,
2009-06-19, 00:49:00,VALID,917.246,VALID,0,VALID,98.6371,VALID,-0.0679233,VALID,18.6237,VALID,107,VALID,0,
2009-06-19, 00:50:00,VALID,917.235,VALID,0,VALID,98.9486,VALID,-0.0849042,VALID,18.601,VALID,116,VALID,0.0695503,
2009-06-19, 00:51:00,VALID,917.245,VALID,0,VALID,99.1775,VALID,-0.0679233,VALID,18.604,VALID,122,VALID,0,
2009-06-19, 00:52:00,VALID,917.234,VALID,0,VALID,99.3365,VALID,-0.0849042,VALID,18.62,VALID,130,VALID,0.0536458,
2009-06-19, 00:53:00,VALID,917.23,VALID,0,VALID,99.3301,VALID,-0.0849042,VALID,18.6239,VALID,128,VALID,0.560454,
2009-06-19, 00:54:00,VALID,917.215,VALID,0,VALID,99.4738,VALID,-0.118866,VALID,18.6496,VALID,142,VALID,0.283558,
2009-06-19, 00:55:00,VALID,917.207,VALID,0,VALID,99.4522,VALID,-0.101885,VALID,18.6434,VALID,140,VALID,0.380327,
2009-06-19, 00:56:00,VALID,917.205,VALID,0,VALID,99.3746,VALID,-0.101885,VALID,18.6202,VALID,139,VALID,0.161328,
2009-06-19, 00:57:00,VALID,917.209,VALID,0,VALID,99.3606,VALID,0.0169808,VALID,18.5996,VALID,138,VALID,0.16806,
2009-06-19, 00:58:00,VALID,917.202,VALID,0,VALID,99.3377,VALID,-0.0169808,VALID,18.5963,VALID,135,VALID,0.148615,
2009-06-19, 00:59:00,VALID,917.199,VALID,0,VALID,99.4369,VALID,0.0169808,VALID,18.5868,VALID,138,VALID,0.604539,
2009-06-19, 01:00:00,VALID,917.19,VALID,0,VALID,99.3873,VALID,0,VALID,18.5771,VALID,137,VALID,0.104911,
2009-06-19, 01:01:00,VALID,917.173,VALID,0,VALID,99.3759,VALID,0,VALID,18.5674,VALID,137,VALID,0.212984,
2009-06-19, 01:02:00,VALID,917.163,VALID,0,VALID,99.2767,VALID,0,VALID,18.5611,VALID,137,VALID,0.0322027,
2009-06-19, 01:03:00,VALID,917.147,VALID,0,VALID,99.3759,VALID,-0.0169808,VALID,18.5414,VALID,134,VALID,0.312119,
2009-06-19, 01:04:00,VALID,917.143,VALID,0,VALID,99.3759,VALID,0,VALID,18.5349,VALID,143,VALID,0.239397,
2009-06-19, 01:05:00,VALID,917.135,VALID,0,VALID,99.3263,VALID,0.0339617,VALID,18.5252,VALID,141,VALID,0.232279,
2009-06-19, 01:06:00,VALID,917.128,VALID,0,VALID,99.2424,VALID,0,VALID,18.5088,VALID,150,VALID,0.0623183,
2009-06-19, 01:07:00,VALID,917.111,VALID,0,VALID,99.1368,VALID,0,VALID,18.499,VALID,146,VALID,0.46503,
2009-06-19, 01:08:00,VALID,917.092,VALID,0,VALID,99.0351,VALID,-0.0339617,VALID,18.5055,VALID,151,VALID,0.168241,
2009-06-19, 01:09:00,VALID,917.058,VALID,0,VALID,98.9079,VALID,-0.0169808,VALID,18.5155,VALID,153,VALID,0.15767,
2009-06-19, 01:10:00,VALID,917.04,VALID,0,VALID,98.7859,VALID,0,VALID,18.5185,VALID,148,VALID,0.634055,
2009-06-19, 01:11:00,VALID,917.022,VALID,0,VALID,98.6625,VALID,0,VALID,18.5574,VALID,139,VALID,0.284446,
2009-06-19, 01:12:00,VALID,917.002,VALID,0,VALID,98.4959,VALID,-0.0169808,VALID,18.5834,VALID,130,VALID,0.109012,
2009-06-19, 01:13:00,VALID,916.976,VALID,0,VALID,98.2874,VALID,0.0169808,VALID,18.5801,VALID,130,VALID,0.238889,
2009-06-19, 01:14:00,VALID,916.961,VALID,0,VALID,98.3154,VALID,0,VALID,18.5676,VALID,126,VALID,0.341082,
2009-06-19, 01:15:00,VALID,916.932,VALID,0,VALID,98.4184,VALID,0,VALID,18.5741,VALID,121,VALID,0.288194,
2009-06-19, 01:16:00,VALID,916.917,VALID,0,VALID,98.4756,VALID,-0.0679233,VALID,18.5938,VALID,124,VALID,0.0404514,
2009-06-19, 01:17:00,VALID,916.9,VALID,0,VALID,98.412,VALID,0,VALID,18.5776,VALID,123,VALID,0.00958807,
2009-06-19, 01:18:00,VALID,916.88,VALID,0,VALID,98.5099,VALID,-0.0169808,VALID,18.5834,VALID,121,VALID,0,
2009-06-19, 01:19:00,VALID,916.841,VALID,0,VALID,98.3268,VALID,-0.0169808,VALID,18.6357,VALID,113,VALID,0.0012718,
2009-06-19, 01:20:00,VALID,916.822,VALID,0,VALID,98.0331,VALID,-0.0339617,VALID,18.6158,VALID,110,VALID,0,
2009-06-19, 01:21:00,VALID,916.8,VALID,0,VALID,98.0102,VALID,-0.0339617,VALID,18.597,VALID,118,VALID,0,
2009-06-19, 01:22:00,VALID,916.793,VALID,0,VALID,97.9771,VALID,0,VALID,18.6193,VALID,111,VALID,0,
2009-06-19, 01:23:00,VALID,916.76,VALID,0,VALID,97.7343,VALID,-0.0509425,VALID,18.613,VALID,107,VALID,0,
2009-06-19, 01:24:00,VALID,916.757,VALID,0,VALID,97.6427,VALID,-0.0169808,VALID,18.5611,VALID,114,VALID,0,
2009-06-19, 01:25:00,VALID,916.758,VALID,0,VALID,97.939,VALID,-0.0169808,VALID,18.5838,VALID,119,VALID,0,
2009-06-19, 01:26:00,VALID,916.755,VALID,0,VALID,97.7699,VALID,-0.0509425,VALID,18.6031,VALID,120,VALID,0,
2009-06-19, 01:27:00,VALID,916.748,VALID,0,VALID,97.5906,VALID,-0.0169808,VALID,18.61,VALID,119,VALID,0,
2009-06-19, 01:28:00,VALID,916.752,VALID,0,VALID,97.4825,VALID,-0.0169808,VALID,18.5739,VALID,124,VALID,0,
2009-06-19, 01:29:00,VALID,916.75,VALID,0,VALID,97.6783,VALID,-0.0679233,VALID,18.5871,VALID,125,VALID,0,
2009-06-19, 01:30:00,VALID,916.739,VALID,0,VALID,97.5829,VALID,0,VALID,18.6098,VALID,114,VALID,0,
2009-06-19, 01:31:00,VALID,916.746,VALID,0,VALID,97.3324,VALID,0,VALID,18.5544,VALID,116,VALID,0,
2009-06-19, 01:32:00,VALID,916.742,VALID,0,VALID,97.5003,VALID,-0.0169808,VALID,18.4993,VALID,108,VALID,0,
2009-06-19, 01:33:00,VALID,916.729,VALID,0,VALID,97.7482,VALID,0,VALID,18.4478,VALID,114,VALID,0,
2009-06-19, 01:34:00,VALID,916.741,VALID,0,VALID,98.0471,VALID,-0.0339617,VALID,18.3832,VALID,111,VALID,0,
2009-06-19, 01:35:00,VALID,916.735,VALID,0,VALID,98.337,VALID,-0.0169808,VALID,18.3246,VALID,115,VALID,0,
2009-06-19, 01:36:00,VALID,916.724,VALID,0,VALID,98.6053,VALID,-0.0509425,VALID,18.2854,VALID,121,VALID,0,
2009-06-19, 01:37:00,VALID,916.738,VALID,0,VALID,98.7159,VALID,-0.0169808,VALID,18.2562,VALID,118,VALID,0,
2009-06-19, 01:38:00,VALID,916.74,VALID,0,VALID,98.866,VALID,-0.0339617,VALID,18.2301,VALID,105,VALID,0,
2009-06-19, 01:39:00,VALID,916.758,VALID,0,VALID,98.9423,VALID,-0.0169808,VALID,18.2206,VALID,79,VALID,0,
2009-06-19, 01:40:00,VALID,916.763,VALID,0,VALID,99.147,VALID,-0.0169808,VALID,18.1909,VALID,92,VALID,0,
2009-06-19, 01:41:00,VALID,916.768,VALID,0,VALID,99.2945,VALID,0,VALID,18.2011,VALID,94,VALID,0,
2009-06-19, 01:42:00,VALID,916.775,VALID,0,VALID,99.2398,VALID,0,VALID,18.1981,VALID,95,VALID,0,
2009-06-19, 01:43:00,VALID,916.787,VALID,0,VALID,99.161,VALID,-0.0339617,VALID,18.1592,VALID,96,VALID,0,
2009-06-19, 01:44:00,VALID,916.78,VALID,0,VALID,99.1724,VALID,-0.0339617,VALID,18.1265,VALID,96,VALID,0,
2009-06-19, 01:45:00,VALID,916.772,VALID,0,VALID,99.2157,VALID,0,VALID,18.1001,VALID,122,VALID,0,
2009-06-19, 01:46:00,VALID,916.744,VALID,0,VALID,99.222,VALID,0,VALID,18.0871,VALID,152,VALID,0,
2009-06-19, 01:47:00,VALID,916.726,VALID,0,VALID,99.1559,VALID,0,VALID,18.0776,VALID,144,VALID,0,
2009-06-19, 01:48:00,VALID,916.68,VALID,0,VALID,99.1991,VALID,0,VALID,18.0482,VALID,128,VALID,0,
2009-06-19, 01:49:00,VALID,916.669,VALID,0,VALID,99.1877,VALID,0.0169808,VALID,18.0255,VALID,101,VALID,0,
2009-06-19, 01:50:00,VALID,916.658,VALID,0,VALID,99.002,VALID,0.0169808,VALID,17.9477,VALID,91,VALID,0,
2009-06-19, 01:51:00,VALID,916.647,VALID,0,VALID,99.4471,VALID,0,VALID,17.9315,VALID,101,VALID,0,
2009-06-19, 01:52:00,VALID,916.636,VALID,0,VALID,99.6175,VALID,0.0169808,VALID,17.9607,VALID,109,VALID,0,
2009-06-19, 01:53:00,VALID,916.624,VALID,0,VALID,99.5323,VALID,0,VALID,17.9996,VALID,112,VALID,0,
2009-06-19, 01:54:00,VALID,916.616,VALID,0,VALID,99.2271,VALID,0,VALID,18.0614,VALID,111,VALID,0,
2009-06-19, 01:55:00,VALID,916.626,VALID,0,VALID,98.913,VALID,-0.0339617,VALID,18.0839,VALID,116,VALID,0,
2009-06-19, 01:56:00,VALID,916.602,VALID,0,VALID,98.6981,VALID,-0.0339617,VALID,18.0774,VALID,110,VALID,0,
2009-06-19, 01:57:00,VALID,916.595,VALID,0,VALID,98.6714,VALID,0,VALID,18.0939,VALID,106,VALID,0.102865,
2009-06-19, 01:58:00,VALID,916.572,VALID,0,VALID,98.5277,VALID,0,VALID,18.0612,VALID,103,VALID,0.283026,
2009-06-19, 01:59:00,VALID,916.559,VALID,0,VALID,98.4387,VALID,-0.0339617,VALID,18.0227,VALID,102,VALID,0.0788517,
2009-06-19, 02:00:00,VALID,916.527,VALID,0,VALID,98.4807,VALID,-0.0339617,VALID,17.9966,VALID,104,VALID,0.169671,
2009-06-19, 02:01:00,VALID,916.515,VALID,0,VALID,98.6435,VALID,-0.0169808,VALID,17.9968,VALID,111,VALID,0.0617733,
2009-06-19, 02:02:00,VALID,916.502,VALID,0,VALID,98.6905,VALID,-0.0169808,VALID,17.9834,VALID,99,VALID,0,
2009-06-19, 02:03:00,VALID,916.492,VALID,0,VALID,98.8584,VALID,0,VALID,17.9769,VALID,108,VALID,0.149219,
2009-06-19, 02:04:00,VALID,916.461,VALID,0,VALID,98.9143,VALID,0,VALID,17.957,VALID,107,VALID,0.759115,
2009-06-19, 02:05:00,VALID,916.445,VALID,0,VALID,98.9156,VALID,-0.0169808,VALID,17.9542,VALID,98,VALID,0.488554,
2009-06-19, 02:06:00,VALID,916.425,VALID,0,VALID,98.7821,VALID,-0.0169808,VALID,17.925,VALID,95,VALID,0.215701,
2009-06-19, 02:07:00,VALID,916.406,VALID,0,VALID,98.6536,VALID,0,VALID,17.8863,VALID,101,VALID,0.0616122,
2009-06-19, 02:08:00,VALID,916.356,VALID,0,VALID,98.7045,VALID,0,VALID,17.8599,VALID,114,VALID,0.288132,
2009-06-19, 02:09:00,VALID,916.332,VALID,0,VALID,98.5557,VALID,0,VALID,17.8699,VALID,105,VALID,0.216845,
2009-06-19, 02:10:00,VALID,916.311,VALID,0,VALID,98.5227,VALID,-0.0339617,VALID,17.8731,VALID,109,VALID,0.344308,
2009-06-19, 02:11:00,VALID,916.316,VALID,0,VALID,98.2925,VALID,-0.0339617,VALID,17.8664,VALID,107,VALID,0.371951,
2009-06-19, 02:12:00,VALID,916.317,VALID,0,VALID,98.3484,VALID,0,VALID,17.8502,VALID,122,VALID,0.604611,
2009-06-19, 02:13:00,VALID,916.323,VALID,0,VALID,98.4196,VALID,0.0169808,VALID,17.8432,VALID,123,VALID,0.14939,
2009-06-19, 02:14:00,VALID,916.32,VALID,0,VALID,98.3357,VALID,0,VALID,17.8405,VALID,124,VALID,0.343205,
2009-06-19, 02:15:00,VALID,916.319,VALID,0,VALID,98.5697,VALID,-0.0169808,VALID,17.8502,VALID,129,VALID,0.63151,
2009-06-19, 02:16:00,VALID,916.306,VALID,0,VALID,98.7032,VALID,0,VALID,17.8407,VALID,128,VALID,1.0901,
2009-06-19, 02:17:00,VALID,916.305,VALID,0,VALID,98.7083,VALID,0,VALID,17.805,VALID,133,VALID,0.638477,
2009-06-19, 02:18:00,VALID,916.303,VALID,0,VALID,98.6587,VALID,-0.0339617,VALID,17.7821,VALID,127,VALID,0.539807,
2009-06-19, 02:19:00,VALID,916.308,VALID,0,VALID,98.4413,VALID,0,VALID,17.7659,VALID,123,VALID,0.41678,
2009-06-19, 02:20:00,VALID,916.317,VALID,0,VALID,98.2836,VALID,0,VALID,17.7726,VALID,125,VALID,0.439986,
2009-06-19, 02:21:00,VALID,916.32,VALID,0,VALID,98.0712,VALID,0,VALID,17.7819,VALID,120,VALID,0.448289,
2009-06-19, 02:22:00,VALID,916.322,VALID,0,VALID,97.733,VALID,0,VALID,17.7983,VALID,123,VALID,0.868676,
2009-06-19, 02:23:00,VALID,916.327,VALID,0,VALID,97.424,VALID,0,VALID,17.8537,VALID,114,VALID,0.675781,
2009-06-19, 02:24:00,VALID,916.324,VALID,0,VALID,97.2752,VALID,0.0169808,VALID,17.8764,VALID,114,VALID,1.19903,
2009-06-19, 02:25:00,VALID,916.313,VALID,0,VALID,97.1341,VALID,0,VALID,17.8861,VALID,111,VALID,0.176417,
2009-06-19, 02:26:00,VALID,916.287,VALID,0,VALID,97.1341,VALID,-0.0169808,VALID,17.8729,VALID,107,VALID,0.0615473,
2009-06-19, 02:27:00,VALID,916.277,VALID,0,VALID,97.1824,VALID,-0.135847,VALID,17.8874,VALID,117,VALID,0.106357,
2009-06-19, 02:28:00,VALID,916.264,VALID,0,VALID,97.3502,VALID,-0.101885,VALID,17.9067,VALID,114,VALID,0,
2009-06-19, 02:29:00,VALID,916.25,VALID,0,VALID,97.3464,VALID,-0.101885,VALID,17.919,VALID,123,VALID,0.106771,
2009-06-19, 02:30:00,VALID,916.233,VALID,0,VALID,97.4113,VALID,-0.118866,VALID,17.9423,VALID,131,VALID,0.0392401,
2009-06-19, 02:31:00,VALID,916.217,VALID,0,VALID,97.3769,VALID,-0.101885,VALID,17.9583,VALID,123,VALID,0.125521,
2009-06-19, 02:32:00,VALID,916.216,VALID,0,VALID,97.2447,VALID,-0.101885,VALID,17.9683,VALID,124,VALID,0.178735,
2009-06-19, 02:33:00,VALID,916.197,VALID,0,VALID,97.0603,VALID,-0.101885,VALID,17.9653,VALID,127,VALID,0.174107,
2009-06-19, 02:34:00,VALID,916.183,VALID,0,VALID,96.8378,VALID,-0.101885,VALID,17.9423,VALID,133,VALID,0.046503,
2009-06-19, 02:35:00,VALID,916.176,VALID,0,VALID,96.6356,VALID,-0.101885,VALID,17.9389,VALID,135,VALID,0.199574,
2009-06-19, 02:36:00,VALID,916.182,VALID,0,VALID,96.5072,VALID,-0.135847,VALID,17.9257,VALID,131,VALID,0.361431,
2009-06-19, 02:37:00,VALID,916.176,VALID,0,VALID,96.5517,VALID,-0.101885,VALID,17.9294,VALID,132,VALID,1.0823,
2009-06-19, 02:38:00,VALID,916.156,VALID,0,VALID,96.5911,VALID,-0.118866,VALID,17.9227,VALID,125,VALID,0,
2009-06-19, 02:39:00,VALID,916.154,VALID,0,VALID,96.5873,VALID,-0.118866,VALID,17.9264,VALID,112,VALID,0.469122,
2009-06-19, 02:40:00,VALID,916.151,VALID,0,VALID,96.6216,VALID,-0.135847,VALID,17.8935,VALID,120,VALID,0.975472,
2009-06-19, 02:41:00,VALID,916.139,VALID,0,VALID,96.8746,VALID,-0.0849042,VALID,17.906,VALID,123,VALID,0.744606,
2009-06-19, 02:42:00,VALID,916.118,VALID,0,VALID,96.8238,VALID,0,VALID,17.9704,VALID,121,VALID,0.323153,
2009-06-19, 02:43:00,VALID,916.101,VALID,0,VALID,96.5873,VALID,0,VALID,18.0156,VALID,118,VALID,0.00228659,
2009-06-19, 02:44:00,VALID,916.09,VALID,0,VALID,96.4258,VALID,0.0169808,VALID,18.0635,VALID,109,VALID,0.0221037,
2009-06-19, 02:45:00,VALID,916.077,VALID,0,VALID,96.0888,VALID,0,VALID,18.1249,VALID,110,VALID,0.144141,
2009-06-19, 02:46:00,VALID,916.055,VALID,0,VALID,95.7798,VALID,-0.0169808,VALID,18.1613,VALID,118,VALID,0.106534,
2009-06-19, 02:47:00,VALID,916.048,VALID,0,VALID,95.6107,VALID,0.0339617,VALID,18.2199,VALID,127,VALID,0.25191,
2009-06-19, 02:48:00,VALID,916.027,VALID,0,VALID,95.2902,VALID,-0.0169808,VALID,18.2618,VALID,134,VALID,0.288318,
2009-06-19, 02:49:00,VALID,916.026,VALID,0,VALID,95.1275,VALID,0.0339617,VALID,18.3035,VALID,143,VALID,0.207371,
2009-06-19, 02:50:00,VALID,916.013,VALID,0,VALID,94.9088,VALID,0.0339617,VALID,18.3489,VALID,140,VALID,0.162153,
2009-06-19, 02:51:00,VALID,916.027,VALID,0,VALID,94.7206,VALID,0.0339617,VALID,18.3619,VALID,138,VALID,0.187314,
2009-06-19, 02:52:00,VALID,916.006,VALID,0,VALID,94.587,VALID,0.0169808,VALID,18.3716,VALID,140,VALID,0.137074,
2009-06-19, 02:53:00,VALID,915.994,VALID,0,VALID,94.5629,VALID,0,VALID,18.3623,VALID,133,VALID,0.427379,
2009-06-19, 02:54:00,VALID,915.987,VALID,0,VALID,94.6303,VALID,-0.0169808,VALID,18.3496,VALID,141,VALID,0.195313,
2009-06-19, 02:55:00,VALID,915.976,VALID,0,VALID,94.5896,VALID,-0.0339617,VALID,18.3429,VALID,132,VALID,0.378815,
2009-06-19, 02:56:00,VALID,915.968,VALID,0,VALID,94.6214,VALID,0,VALID,18.2815,VALID,140,VALID,0.283067,
2009-06-19, 02:57:00,VALID,915.967,VALID,0,VALID,94.8312,VALID,-0.101885,VALID,18.244,VALID,141,VALID,0.135719,
2009-06-19, 02:58:00,VALID,915.955,VALID,0,VALID,94.9965,VALID,-0.0849042,VALID,18.2173,VALID,157,VALID,0.126453,
2009-06-19, 02:59:00,VALID,915.946,VALID,0,VALID,95.2305,VALID,-0.101885,VALID,18.2273,VALID,148,VALID,0.310937,
2009-06-19, 03:00:00,VALID,915.946,VALID,0,VALID,95.3309,VALID,-0.0679233,VALID,18.2505,VALID,155,VALID,0.278711,
2009-06-19, 03:01:00,VALID,915.916,VALID,0,VALID,95.6348,VALID,-0.0849042,VALID,18.2725,VALID,147,VALID,0.916969,
2009-06-19, 03:02:00,VALID,915.892,VALID,0,VALID,95.6272,VALID,-0.152827,VALID,18.3253,VALID,137,VALID,0.244792,
2009-06-19, 03:03:00,VALID,915.866,VALID,0,VALID,95.5891,VALID,-0.0849042,VALID,18.351,VALID,117,VALID,0.353051,
2009-06-19, 03:04:00,VALID,915.844,VALID,0,VALID,95.5458,VALID,-0.101885,VALID,18.3732,VALID,117,VALID,0.184775,
2009-06-19, 03:05:00,VALID,915.827,VALID,0,VALID,95.5509,VALID,-0.118866,VALID,18.3702,VALID,115,VALID,0.0662287,
2009-06-19, 03:06:00,VALID,915.828,VALID,0,VALID,95.5992,VALID,-0.101885,VALID,18.3503,VALID,110,VALID,0,
2009-06-19, 03:07:00,VALID,915.818,VALID,0,VALID,95.6603,VALID,-0.0509425,VALID,18.3505,VALID,113,VALID,0,
2009-06-19, 03:08:00,VALID,915.827,VALID,0,VALID,95.7175,VALID,-0.0509425,VALID,18.3339,VALID,117,VALID,0,
2009-06-19, 03:09:00,VALID,915.817,VALID,0,VALID,95.6921,VALID,-0.0509425,VALID,18.3408,VALID,120,VALID,0,
2009-06-19, 03:10:00,VALID,915.801,VALID,0,VALID,95.6374,VALID,-0.101885,VALID,18.3246,VALID,132,VALID,0,
2009-06-19, 03:11:00,VALID,915.795,VALID,0,VALID,95.6005,VALID,-0.101885,VALID,18.3311,VALID,136,VALID,0.047619,
2009-06-19, 03:12:00,VALID,915.79,VALID,0,VALID,95.6081,VALID,0.0849042,VALID,18.3257,VALID,138,VALID,0,
2009-06-19, 03:13:00,VALID,915.786,VALID,0,VALID,95.5509,VALID,0.101885,VALID,18.319,VALID,137,VALID,0,
2009-06-19, 03:14:00,VALID,915.784,VALID,0,VALID,95.4632,VALID,0.0849042,VALID,18.3285,VALID,132,VALID,0.240625,
2009-06-19, 03:15:00,VALID,915.788,VALID,0,VALID,95.3131,VALID,0.101885,VALID,18.2894,VALID,116,VALID,0.0998884,
2009-06-19, 03:16:00,VALID,915.787,VALID,0,VALID,95.3449,VALID,0.0509425,VALID,18.2671,VALID,114,VALID,0.00241815,
2009-06-19, 03:17:00,VALID,915.788,VALID,0,VALID,95.4085,VALID,0.0849042,VALID,18.2512,VALID,125,VALID,0,
2009-06-19, 03:18:00,VALID,915.791,VALID,0,VALID,95.3843,VALID,0.0849042,VALID,18.2412,VALID,132,VALID,0,
2009-06-19, 03:19:00,VALID,915.774,VALID,0,VALID,95.3322,VALID,0.0849042,VALID,18.2347,VALID,139,VALID,0,
2009-06-19, 03:20:00,VALID,915.745,VALID,0,VALID,95.336,VALID,0.0339617,VALID,18.2058,VALID,136,VALID,0.0595238,
2009-06-19, 03:21:00,VALID,915.741,VALID,0,VALID,95.0944,VALID,0.0679233,VALID,18.1119,VALID,127,VALID,0.155297,
2009-06-19, 03:22:00,VALID,915.728,VALID,0,VALID,95.3614,VALID,0.0509425,VALID,17.9952,VALID,101,VALID,0.105923,
2009-06-19, 03:23:00,VALID,915.714,VALID,0,VALID,95.5382,VALID,0.0339617,VALID,17.865,VALID,87,VALID,0.0725446,
2009-06-19, 03:24:00,VALID,915.72,VALID,0,VALID,95.9591,VALID,0.0509425,VALID,17.7777,VALID,99,VALID,0.229167,
2009-06-19, 03:25:00,VALID,915.707,VALID,0,VALID,96.3202,VALID,0.0509425,VALID,17.7418,VALID,104,VALID,0.342187,
2009-06-19, 03:26:00,VALID,915.706,VALID,0,VALID,96.3927,VALID,0.0679233,VALID,17.7191,VALID,83,VALID,0.53091,
2009-06-19, 03:27:00,VALID,915.712,VALID,0,VALID,96.3368,VALID,-0.0509425,VALID,17.6785,VALID,69,VALID,0,
2009-06-19, 03:28:00,VALID,915.719,VALID,0,VALID,96.4894,VALID,0,VALID,17.6364,VALID,74,VALID,0.397104,
2009-06-19, 03:29:00,VALID,915.702,VALID,0,VALID,96.511,VALID,0,VALID,17.6234,VALID,73,VALID,0.081936,
2009-06-19, 03:30:00,VALID,915.705,VALID,0,VALID,96.3787,VALID,-0.0679233,VALID,17.5845,VALID,84,VALID,0,
2009-06-19, 03:31:00,VALID,915.691,VALID,0,VALID,96.3088,VALID,-0.0849042,VALID,17.5488,VALID,103,VALID,0,
2009-06-19, 03:32:00,VALID,915.695,VALID,0,VALID,96.3838,VALID,-0.0849042,VALID,17.5203,VALID,115,VALID,0.00121528,
2009-06-19, 03:33:00,VALID,915.682,VALID,0,VALID,96.4868,VALID,-0.0509425,VALID,17.5099,VALID,112,VALID,0.421705,
2009-06-19, 03:34:00,VALID,915.686,VALID,0,VALID,96.249,VALID,-0.0169808,VALID,17.5456,VALID,105,VALID,0,
2009-06-19, 03:35:00,VALID,915.685,VALID,0,VALID,95.8853,VALID,-0.0509425,VALID,17.5813,VALID,106,VALID,0,
2009-06-19, 03:36:00,VALID,915.712,VALID,0,VALID,95.617,VALID,-0.0339617,VALID,17.5942,VALID,108,VALID,0,